Location: Holcomb Observatory
(44.4922°N, 73.1654°W)
Time: 02:11:11
(UTC-04:00)

Daily predictions for brighter satellites

Satellite Brightness Start Highest point End
(mag) Time Altitude Azimuth Time Altitude Azimuth Time Altitude Azimuth
ATLAS 3B R/B 4.3 01:11:13 30° NNE 01:11:13 30° NNE 01:14:30 10° NE
SL-16 R/B 3.8 02:31:15 36° NNE 02:31:15 36° NNE 02:35:32 10° N
CENTAUR R/B 3.8 02:42:57 35° ENE 02:42:57 35° ENE 02:47:11 10° NE
Cosmos 2322 Rocket 4.2 02:46:16 22° ENE 02:46:16 22° ENE 02:49:04 10° NE
USA 215 4.2 02:41:46 10° E 02:47:53 44° NNE 02:51:51 21° NW
SL-16 R/B 4.1 02:49:59 24° ENE 02:49:59 24° ENE 02:53:04 10° NE
COSMOS 2455 4.5 02:51:40 27° N 02:51:40 27° N 02:54:59 10° NNE
Cosmos 1697 Rocket 4.3 03:01:54 30° N 03:01:54 30° N 03:04:47 10° NNE
ATLAS 3B R/B 4.4 02:58:26 23° NW 02:59:19 24° NNW 03:04:55 10° NNE
ARIANE 5 R/B 4.2 03:01:05 10° NNE 03:03:50 30° NE 03:03:50 30° NE
CZ-2D R/B 3.3 03:08:19 10° NNE 03:11:58 40° NE 03:11:58 40° NE
Cosmos 2360 Rocket 4.2 03:16:06 19° ESE 03:16:46 19° E 03:20:36 10° ENE
Cosmos 1980 Rocket 3.4 03:19:15 37° N 03:19:15 37° N 03:22:43 10° NNE
Resurs 1-4 Rocket 3.3 03:13:17 10° NNE 03:16:35 38° NE 03:16:35 38° NE
Okean O Rocket 4.3 03:28:46 10° ENE 03:30:58 13° E 03:32:20 12° ESE
Cosmos 2263 Rocket 3.1 03:27:10 10° NNW 03:31:06 42° N 03:31:06 42° N
FALCON 9 R/B 4.3 03:31:24 53° SSW 03:33:34 56° S 04:10:36 10° ESE
ADEOS II 4.4 03:42:13 10° NE 03:45:55 19° E 03:49:36 10° SE
Cosmos 1975 Rocket 4.1 04:01:08 41° NNE 04:01:08 41° NNE 04:04:06 10° NNE
Cosmos 2315 Rocket 3.9 04:10:01 67° WNW 04:10:01 67° WNW 04:16:13 10° N
Lacrosse 4 Rocket 2.9 04:08:32 10° NNW 04:12:25 36° NE 04:16:21 10° ESE
SL-16 R/B 3.9 04:16:19 23° NW 04:16:19 23° NW 04:19:03 10° NNW
Cosmos 1975 4.2 04:09:45 10° N 04:13:35 38° ENE 04:14:54 29° ESE
DNEPR-1 R/B 4.1 04:14:37 67° NW 04:14:37 67° NW 04:19:39 10° NNE
Gblst 52 Del rocket 4.5 04:19:21 38° NW 04:21:34 68° NNE 04:27:43 10° ESE
Cosmos 1500 4.1 04:18:03 10° N 04:21:46 46° ENE 04:22:08 45° E
SL-08 ROCKET BODY 4.2 04:19:06 10° N 04:25:00 84° W 04:27:25 38° S
Tiangong 2 3.6 04:27:08 19° ESE 04:27:08 19° ESE 04:28:08 10° ESE
PSLV R/B 4.2 04:24:30 10° NNE 04:28:01 56° E 04:28:01 56° E
Cosmos 2322 Rocket 2.5 04:28:06 48° WNW 04:28:13 48° WNW 04:33:39 10° NNE
ADEOS Rocket 3.2 04:24:09 10° N 04:29:18 44° WNW 04:29:18 44° WNW
USA 215 3.1 04:24:03 10° SE 04:30:38 78° SW 04:37:13 10° NW
Nadezhda 1 Rocket 4.3 04:26:10 18° S 04:30:47 63° E 04:36:46 10° NNE
CZ-2D R/B 4.3 04:26:51 10° N 04:30:15 43° NNW 04:30:15 43° NNW
CENTAUR R/B 3.2 04:30:07 37° WNW 04:31:30 41° NW 04:38:10 10° NNE
SL-16 R/B 2.5 04:31:51 46° WNW 04:32:09 47° WNW 04:37:39 10° NNE
COSMOS 2428 3.9 04:32:15 14° SSE 04:36:37 38° ESE 04:41:50 10° NE
Cosmos 2074 Rocket 3.9 04:35:29 10° NNW 04:41:44 73° W 04:47:29 12° S
Cosmos 2219 Rocket 4.2 04:39:30 10° SSE 04:43:57 25° ESE 04:48:25 10° NE
ARIANE 5 R/B 3.9 04:40:53 10° NNW 04:44:11 23° NW 04:44:11 23° NW
CZ-2C R/B 4.1 04:40:31 10° SSE 04:45:03 63° ENE 04:49:33 10° N
Meteor 2-13 Rocket 4.3 04:41:12 10° N 04:47:24 85° W 04:53:32 10° S
ISS -1.2 04:51:36 13° SSE 04:51:36 13° SSE 04:52:02 10° SSE
Cosmos 1844 Rocket 3.4 04:45:29 10° NNW 04:51:00 55° ENE 04:56:26 10° SE
SL-8 R/B 4.2 04:49:39 33° NW 04:51:27 53° N 04:56:08 10° E
Genesis I 4.2 04:52:42 32° NW 04:52:42 32° NW 04:56:04 10° NNE
IRS-1C Rocket 4.2 04:47:38 10° NNE 04:52:55 76° ESE 04:57:00 17° S
CZ-2D R/B 3.5 04:49:14 10° NNW 04:53:19 22° WNW 04:53:19 22° WNW
Cosmos 1570 Rocket 4.4 04:50:48 18° S 04:54:33 61° ESE 04:59:43 10° NNE
Cosmos 1544 Rocket 3.7 04:52:26 10° NNW 04:56:46 51° W 04:57:05 49° WSW
Resurs 1-4 Rocket 3.6 04:54:13 10° NNW 04:57:40 19° WNW 04:57:40 19° WNW
MTI 3.7 04:58:44 62° S 04:59:14 85° W 05:02:33 10° NNW
Cosmos 2360 Rocket 2.2 04:57:53 36° SW 05:00:10 67° WNW 05:05:50 10° NNE
Cosmos 2278 Rocket 4.1 04:55:50 10° N 05:00:52 31° NE 05:05:53 10° ESE
CZ-4B R/B 2.5 04:58:09 10° N 05:01:45 72° WNW 05:02:24 55° SW
Cosmos 1980 Rocket 4.1 05:01:00 13° NW 05:02:14 14° NW 05:05:03 10° N
Cosmos 1812 3.7 05:04:57 30° NW 05:04:57 30° NW 05:07:48 10° N
Okean O Rocket 1.6 05:03:20 10° N 05:07:45 64° WNW 05:09:49 30° SW
Cosmos 2237 Rocket 4.4 05:04:22 10° SSE 05:08:47 24° ESE 05:13:15 10° NE
PAYLOAD B 4.2 05:07:32 10° N 05:13:09 73° WNW 05:18:05 13° SSW
Cosmos 2184 Rocket 4.3 05:10:08 10° NNW 05:15:52 41° W 05:21:40 10° SSW
Cosmos 2263 Rocket 4.1 05:12:00 10° NW 05:12:42 13° WNW 05:12:42 13° WNW
Okean-O 3.7 05:13:23 10° NNE 05:17:41 46° E 05:21:56 10° S
Meteor 1-12 Rocket 4.5 05:13:02 10° NNW 05:18:22 45° W 05:23:44 10° SSW
Cosmos 1340 3.1 05:18:04 36° WSW 05:18:50 41° WNW 05:22:28 10° N
ATLAS 5 CENTAUR R/B 3.3 05:17:25 10° NNW 05:23:09 51° NE 05:29:23 10° ESE
DELTA 2 R/B (1) 4.3 05:20:34 22° SW 05:23:41 42° SSE 05:28:53 10° E
Cosmos 1666 3.0 05:20:27 10° N 05:24:19 70° E 05:28:10 10° SSE
Cosmos 2333 Rocket 3.4 05:19:26 10° S 05:24:46 43° ESE 05:30:09 10° NE
ADEOS II 2.1 05:20:51 10° N 05:26:02 59° WNW 05:30:52 12° SSW
Cosmos 1743 2.6 05:22:38 10° NNW 05:26:30 65° W 05:30:18 10° S
Meteor 1-31 Rocket 3.3 05:23:16 10° NNE 05:27:03 60° E 05:30:48 10° S
Cosmos 1455 Rocket 4.0 05:26:53 10° NNW 05:30:35 27° W 05:32:07 22° WSW
MOS 1 Rocket 4.4 05:27:41 10° N 05:31:38 26° WNW 05:33:14 21° W
Cosmos 1937 Rocket 4.5 05:26:44 10° NNW 05:31:57 52° ENE 05:37:06 10° SE
Cosmos 1025 Rocket 3.8 05:28:17 10° S 05:32:33 55° E 05:36:51 10° NNE
Cosmos 2322 4.2 05:29:55 21° WSW 05:33:27 44° WNW 05:38:56 10° NNE
Cosmos 1295 Rocket 4.5 05:28:35 10° N 05:34:53 90° W 05:41:03 10° S
EO 1 Del DPAF 4.1 05:34:09 15° SSW 05:36:42 28° W 05:40:05 10° NW
Cosmos 962 Rocket 4.5 05:30:40 10° NNW 05:36:54 71° W 05:43:10 10° S
Meteor 1-13 Rocket 4.2 05:35:26 10° SSW 05:40:54 65° WNW 05:46:30 10° N
Cosmos 2298 Rocket 4.3 05:36:00 10° NNW 05:41:22 75° ENE 05:46:41 10° SSE
USA 116 4.0 05:41:19 10° S 05:45:25 61° W 05:50:07 10° NNW
Cosmos 1238 Rocket 2.8 05:46:13 16° SW 05:48:12 33° WNW 05:50:56 10° N
Cosmos 2154 Rocket 4.3 05:43:46 10° NNW 05:49:33 42° W 05:55:18 10° SSW
Cosmos 1975 4.4 05:47:07 10° NW 05:49:45 17° W 05:50:38 16° WSW
Meteor 2-19 Rocket 4.4 05:44:31 10° NNW 05:50:35 67° W 05:56:34 10° S
Lacrosse 4 Rocket 2.5 05:47:34 10° NW 05:50:57 24° WSW 05:54:22 10° SSW
Cosmos 2333 4.3 05:46:50 10° SW 05:52:26 63° WNW 05:58:07 10° NNE
Cosmos 1844 3.7 05:47:06 10° NNW 05:52:50 66° WSW 05:58:27 10° SSE
SJ-6F 4.5 05:49:49 10° NNE 05:53:55 85° E 05:58:00 10° SSW
CZ-4B R/B 3.9 05:53:39 10° N 05:58:43 35° WNW 06:03:43 10° SW
Aureole 2 Rocket 3.4 05:55:54 10° S 05:59:30 51° ESE 06:02:49 10° NNE
Meteor PRIRODA 4.3 05:56:45 10° N 06:00:15 37° WNW 06:03:45 10° SW
Iridium 2 3.6 05:57:24 10° N 06:01:15 78° W 06:05:03 10° S
Tiangong 2 2.1 05:59:14 14° WSW 06:01:25 31° SSW 06:04:15 10° SE
Cosmos 1437 3.0 05:59:54 10° S 06:03:10 73° E 06:06:27 10° NNE
SL-16 R/B 4.4 05:58:51 10° SSE 06:03:36 28° ESE 06:08:23 10° NE
Cosmos 1867 3.6 05:59:28 10° NW 06:04:58 84° WSW 06:10:23 10° SSE
Cosmos 2058 Rocket 3.8 06:00:43 10° N 06:05:12 60° E 06:09:35 10° SSE
SKYMED 2 3.6 06:04:13 10° SSE 06:08:33 87° WSW 06:12:56 10° NNW
Geosat 4.1 06:03:32 10° SSE 06:08:34 88° ENE 06:13:37 10° NNW
Okean 1-7 Rocket 3.9 06:04:53 10° SSW 06:09:14 47° WNW 06:13:36 10° N
Cosmos 2181 Rocket 4.2 06:05:34 10° SSW 06:11:35 52° WNW 06:17:44 10° N
SL-8 Rocket 4.0 06:07:30 10° NNW 06:13:37 60° W 06:19:40 10° S
Cosmos 2322 Rocket 4.3 06:12:40 10° NW 06:13:44 10° NW 06:14:48 10° NNW
USA 215 4.4 06:09:28 10° S 06:14:17 21° WSW 06:19:08 10° WNW
Cosmos 1980 3.8 06:09:12 10° SSW 06:14:50 86° ESE 06:20:32 10° NNE
SL-16 R/B 4.3 06:16:50 10° NW 06:17:47 10° NW 06:18:46 10° NNW
Meteor 1-23 Rocket 4.4 06:13:35 10° SSW 06:19:19 61° WNW 06:25:04 10° N
ERS-2 3.2 06:16:10 10° N 06:19:20 27° WNW 06:22:28 10° SW
COSMOS 2428 3.4 06:15:43 10° WSW 06:20:54 35° NW 06:26:07 10° NNE
Radarsat Rocket 4.0 06:15:00 10° NNE 06:21:04 89° E 06:26:53 10° SSW
